Flag for U.S.A. Weather past 2 weeks in Barnstable, Massachusetts, U.S.A.

Now
59 °F

Clear.


Feels Like: 59 °F
Forecast: 61 / 72 °F
Wind: No wind

Location: Barnstable Municipal-Boardman Airport

Current Time: Jul 4, 2015 at 7:11:48 AM

Latest Report: Jul 4, 2015 at 5:56 AM


Visibility: 10 mi

Pressure: 30.00 "Hg

Humidity: 90%

Dew point: 56 °F

Location of BarnstableLocation

Historic Weather in Barnstable — Graph

°F

Barnstable temperature yesterday

Maximum temperature yesterday: 77 °F (at 3:56 PM)
Minimum temperature yesterday: 62 °F (at 5:56 AM)
Average temperature yesterday: 68 °F

Past Weeks' High & Low Weather Summary

 TemperatureHumidityPressure
High80 °F (Jun 24, 2:56 PM)100% (Jun 21, 8:56 PM)30.17 "Hg (Jun 21, 8:56 PM)
Low51 °F (Jun 27, 4:56 AM)36% (Jul 3, 2:56 PM)29.59 "Hg (Jun 21, 4:56 PM)
Average67 °F80%29.91 "Hg
* Reported Jun 19 5:56 AM — Jul 4 5:56 AM, Barnstable, Weather by CustomWeather, © 2015

Note: Actual official high and low records may vary slightly from our data, if they occured in-between our weather recording intervals... More about our weather records

Advertising

Barnstable weather history for previous 24 hours

 ConditionsComfort  
Time TempWeatherWind HumidityBarometerVisibility
5:56 AM
Sat, Jul 4
59 °FClear.No wind90%30.00 "Hg10 mi
4:56 AM57 °FClear.No wind90%30.00 "Hg10 mi
3:56 AM59 °FClear.No wind87%30.01 "Hg10 mi
2:56 AM58 °FClear.No wind90%30.00 "Hg10 mi
1:56 AM59 °FClear.3 mph87%30.01 "Hg10 mi
12:56 AM59 °FClear.No wind87%30.01 "Hg10 mi
11:56 PM
Fri, Jul 3
64 °FClear.5 mph73%30.01 "Hg10 mi
10:56 PM65 °FClear.10 mph73%30.01 "Hg10 mi
9:56 PM65 °FClear.6 mph70%30.00 "Hg10 mi
8:56 PM66 °FSunny.5 mph70%29.99 "Hg10 mi
7:56 PM66 °FSunny.3 mph70%29.98 "Hg10 mi
6:56 PM68 °FSunny.5 mph57%29.97 "Hg10 mi
5:56 PM71 °FSunny.6 mph49%29.96 "Hg10 mi
4:56 PM71 °FSunny.9 mph51%29.96 "Hg10 mi
3:56 PM77 °FSunny.5 mph37%29.95 "Hg10 mi
2:56 PM76 °FSunny.7 mph36%29.96 "Hg10 mi
1:56 PM74 °FSunny.6 mph43%29.96 "Hg10 mi
12:56 PM72 °FSunny.8 mph49%29.96 "Hg10 mi
11:56 AM70 °FSunny.10 mph55%29.95 "Hg10 mi
10:56 AM69 °FSunny.10 mph61%29.94 "Hg10 mi
9:56 AM67 °FSunny.14 mph68%29.93 "Hg10 mi
8:56 AM66 °FSunny.15 mph70%29.92 "Hg10 mi
7:56 AM66 °FSunny.8 mph75%29.90 "Hg10 mi
Weather by CustomWeather, © 2015

See weather overviewHow to use our weather pages